Weather History for LKPD - December, 2013

Change the Weather History Date:

Thursday, December 5, 2013

  Actual Average Record
Temperature  
Mean Temperature 36 °F -  
Max Temperature 41 °F - - ()
Min Temperature 33 °F - - ()
Degree Days  
Heating Degree Days 29    
Moisture  
Dew Point 31 °F    
Average Humidity 79    
Maximum Humidity 93    
Minimum Humidity 65    
Precipitation  
Precipitation 0.00 in - - ()
Sea Level Pressure  
Sea Level Pressure 30.05 in    
Wind  
Wind Speed 9 mph ()    
Max Wind Speed 29 mph    
Max Gust Speed 40 mph    
Visibility 6.0 miles    
Events Rain , Snow    
T = Trace of Precipitation, MM = Missing Value Source: Averaged Metar Reports

Daily Weather History Graph

Daily Weather History Graph

Search for Another Location

Airport or City:

Trip Planner

Search our weather history database for the weather conditions in past years. The results will help you decide how hot, cold, wet, or windy it might be!

Date:

Astronomy

Dec. 05, 2013 Rise Set
Actual Time 7:38 AM CET 3:56 PM CET
Civil Twilight 7:01 AM CET 4:34 PM CET
Nautical Twilight 6:20 AM CET 5:15 PM CET
Astronomical Twilight 5:40 AM CET 5:54 PM CET
Moon 9:37 AM CET (12/5) 7:04 PM CET (12/5)
Length of Visible Light 9h 32m
Length of Day
8h 17m
Waxing Crescent, 9% of the Moon is Illuminated
Dec 5
Waxing Crescent
Dec 9
First Quarter
Dec 17
Full
Dec 25
Last Quarter
Jan 1
New

Hourly Weather History & Observations

Time (CET) Temp. Windchill Dew Point Humidity Pressure Visibility Wind Dir Wind Speed Gust Speed Precip Events Conditions
12:00 AM 33.8 °F 27.7 °F 32.0 °F 93% 30.21 in 3.1 mi West 6.9 mph - N/A Snow Light Snow
1:00 AM 33.8 °F 26.4 °F 32.0 °F 93% 30.21 in 3.7 mi West 9.2 mph - N/A Rain , Snow Light Rain
2:00 AM 35.6 °F 29.9 °F 32.0 °F 87% 30.24 in 6.2 mi WNW 6.9 mph - N/A   Overcast
3:00 AM 35.6 °F 28.6 °F 32.0 °F 87% 30.24 in 6.2 mi WNW 9.2 mph - N/A   Mostly Cloudy
4:00 AM 35.6 °F 28.0 °F 32.0 °F 87% 30.24 in 6.2 mi West 10.4 mph - N/A   Mostly Cloudy
5:00 AM 35.6 °F 28.0 °F 32.0 °F 87% 30.27 in 6.2 mi West 10.4 mph - N/A   Mostly Cloudy
6:00 AM 35.6 °F 29.2 °F 32.0 °F 87% 30.24 in 6.2 mi WSW 8.1 mph - N/A   Mostly Cloudy
7:00 AM 33.8 °F 29.6 °F 32.0 °F 93% 30.27 in 6.2 mi West 4.6 mph - N/A   Mostly Cloudy
8:00 AM 33.8 °F 30.8 °F 30.2 °F 87% 30.24 in 6.2 mi West 3.5 mph - N/A   Mostly Cloudy
9:00 AM 35.6 °F 29.2 °F 32.0 °F 87% 30.24 in - West 8.1 mph - N/A   Clear
10:00 AM 37.4 °F 30.8 °F 32.0 °F 81% 30.24 in 6.2 mi WSW 9.2 mph - N/A   Scattered Clouds
11:00 AM 39.2 °F 31.2 °F 32.0 °F 75% 30.21 in - WSW 13.8 mph - N/A   Clear
12:00 PM 39.2 °F 32.0 °F 30.2 °F 70% 30.18 in 6.2 mi WSW 11.5 mph - N/A   Mostly Cloudy
1:00 PM 39.2 °F 31.6 °F 28.4 °F 65% 30.12 in 6.2 mi WSW 12.7 mph - N/A   Mostly Cloudy
2:00 PM 37.4 °F 29.3 °F 26.6 °F 65% 30.09 in 6.2 mi WSW 12.7 mph - N/A   Mostly Cloudy
3:00 PM 37.4 °F 33.8 °F 28.4 °F 70% 30.04 in 6.2 mi SW 4.6 mph - N/A   Overcast
4:00 PM 37.4 °F 32.8 °F 28.4 °F 70% 29.98 in 6.2 mi SSW 5.8 mph - N/A   Overcast
5:00 PM 37.4 °F 34.9 °F 28.4 °F 70% 29.92 in 6.2 mi SSW 3.5 mph - N/A   Overcast
6:00 PM 37.4 °F 31.4 °F 30.2 °F 75% 29.86 in 6.2 mi SW 8.1 mph - N/A   Overcast
7:00 PM 37.4 °F 31.4 °F 30.2 °F 75% 29.77 in 6.2 mi SSW 8.1 mph - N/A   Overcast
7:13 PM 37.4 °F 28.9 °F 30.2 °F 75% 29.77 in 6.2 mi SW 13.8 mph 26.5 mph N/A   Overcast
8:00 PM 39.2 °F 30.8 °F 30.2 °F 70% 29.71 in 6.2 mi SW 15.0 mph - N/A Rain Light Rain
9:00 PM 37.4 °F 26.4 °F 32.0 °F 81% 29.68 in 6.2 mi WSW 23.0 mph 34.5 mph N/A Rain Light Rain
10:00 PM 39.2 °F 29.6 °F 33.8 °F 81% 29.65 in 6.2 mi WSW 19.6 mph 31.1 mph N/A Rain Light Rain
11:00 PM 41.0 °F 30.0 °F 33.8 °F 76% 29.62 in 6.2 mi WSW 28.8 mph 40.3 mph N/A Rain Light Rain